Tracking 31030 objects as of 17-Jul-2025
HD Live streaming from Space Station
objects crossing your sky now

STARLINK-32795

Track STARLINK-32795 now!
10-day predictions
STARLINK-32795 is classified as:


NORAD ID: 63042
Int'l Code: 2025-034P
Perigee: 453.7 km
Apogee: 455.1 km
Inclination: 53.2 °
Period: 93.5 minutes
Semi major axis: 6825 km
RCS: Unknown
Launch date: February 18, 2025
Source: United States (US)
Launch site: AIR FORCE EASTERN TEST RANGE (AFETR)
Your satellite tracking list
Your tracking list is empty




NASA's NSSDC Master Catalog

Two Line Element Set (TLE):
1 63042U 25034P   25197.53074531  .00000953  00000-0  33823-4 0  9991
2 63042  53.1576 281.1828 0001062  98.0489 262.0636 15.39609143 22843
Source of the keplerian elements: AFSPC